Flag for Switzerland Weather past 2 weeks in Geneva, Geneva, Switzerland

Now
59 °F

Cool.


Feels Like: 59 °F
Forecast: 58 / 69 °F
Wind: 2 mph from West

Location: Geneve-Cointrin

Current Time: Jul 29, 2014 at 7:53:32 AM

Latest Report: Jul 29, 2014 at 7:00 AM


Visibility: N/A

Pressure: 29.81 "Hg

Humidity: 92%

Dew point: 57 °F

Location of GenevaLocation

Historic Weather in Geneva — Graph

°F

Geneva temperature yesterday

Maximum temperature yesterday: 75 °F (at 1:00 PM)
Minimum temperature yesterday: 61 °F (at 11:00 PM)
Average temperature yesterday: 66 °F

Past Weeks' High & Low Weather Summary

 TemperatureHumidityPressure
High87 °F (Jul 18, 6:00 PM)96% (Jul 27, 7:00 AM)30.19 "Hg (Jul 27, 7:00 AM)
Low55 °F (Jul 27, 5:00 AM)25% (Jul 18, 6:00 PM)29.81 "Hg (Jul 25, 6:00 PM)
Average67 °F75%29.98 "Hg
* Reported Jul 14 6:00 AM — Jul 29 6:00 AM, Geneva, Weather by CustomWeather, © 2014

Note: Actual official high and low records may vary slightly from our data, if they occured in-between our weather recording intervals... More about our weather records

Advertising

Geneva weather history for previous 24 hours

 ConditionsComfort  
Time TempWeatherWind HumidityBarometerVisibility
6:00 AM
Jul 29
59 °FCool.3 mph92%29.83 "HgN/A
5:00 AM59 °FLight rain. Low clouds.3 mph93%29.84 "Hg3 mi
4:00 AM60 °FCool.2 mph93%29.84 "HgN/A
3:00 AM60 °FCool.3 mph90%29.85 "HgN/A
2:00 AM60 °FLow clouds.3 mph88%29.87 "Hg12 mi
1:00 AM60 °FCool.2 mph93%29.88 "HgN/A
12:00 AM60 °FCool.3 mph91%29.88 "HgN/A
11:00 PM
Jul 28
61 °FPassing clouds.2 mph93%29.90 "Hg25 mi
10:00 PM61 °FCool.No wind93%29.90 "HgN/A
9:00 PM61 °FCool.3 mph90%29.90 "HgN/A
8:00 PM61 °FLight rain. Overcast.5 mph89%29.91 "Hg9 mi
7:00 PM62 °FCool.10 mph87%29.90 "HgN/A
6:00 PM64 °FMild.13 mph71%29.88 "HgN/A
5:00 PM66 °FSprinkles. Overcast.10 mph70%29.86 "Hg12 mi
4:00 PM69 °FMild.8 mph73%29.84 "HgN/A
3:00 PM68 °FMild.8 mph78%29.85 "HgN/A
2:00 PM73 °FThunderstorms. Overcast.8 mph62%29.83 "Hg9 mi
1:00 PM75 °FMild.7 mph58%29.83 "HgN/A
12:00 PM74 °FMild.6 mph63%29.85 "HgN/A
11:00 AM72 °FScattered clouds.3 mph64%29.87 "Hg12 mi
10:00 AM69 °FMild.1 mph69%29.90 "HgN/A
9:00 AM68 °FMild.2 mph75%29.90 "HgN/A
8:00 AM65 °FScattered clouds.2 mph82%29.92 "Hg12 mi
7:00 AM63 °FMild.2 mph89%29.93 "HgN/A
Weather by CustomWeather, © 2014

See weather overviewHow to use our weather pages